Regional Weather Roundup
Issued by NWS

Home | Current Version | Previous Version | Text Only | Print | Product List | Glossary Off
Versions: 1 2 3 4 5 6 7 8 9 10 11 12 13 14 15 16 17 18 19 20 21 22 23 24 25 26 27 28 29 30 31 32 33 34 35 36 37 38 39 40 41 42 43 44 45 46 47 48 49 50

000
ASUS45 KABQ 220601
RWRNM
NEW MEXICO REGIONAL WEATHER ROUNDUP
NATIONAL WEATHER SERVICE ALBUQUERQUE NM
1200 AM MDT FRI SEP 22 2017

NOTE: "FAIR" MEANS FEW OR NO CLOUDS BELOW 12,000 FEET AGL WITH NO
       SIGNIFICANT WEATHER OR OBSTRUCTIONS TO VISION.

      THIS PRODUCT IS RELEASED AS TWO VERSIONS.  ONE VERSION NEAR
      THE TOP OF THE HOUR CONTAINING PRELIMINARY DATA FROM ALBUQUERQUE
      AND OTHER STATIONS.  A FINAL VERSION WITH ADDITIONAL DATA IS
      ISSUED ABOUT 10 MINUTES AFTER THE HOUR.

NMZ501-503-504-510>518-220700-
NORTHWEST PLATEAU/NORTHCENTRAL MOUNTAINS

CITY           SKY/WX    TMP DP  RH WIND       PRES   REMARKS
FARMINGTON     FAIR      68  34  28 S12       29.89R
6HR MIN TEMP:  67; 6HR MAX TEMP:  81;

LOS ALAMOS     FAIR      65  31  28 S13G18    30.04S
SANTA FE       FAIR      63  36  36 SE10      29.99S
6HR MIN TEMP:  62; 6HR MAX TEMP:  80;

ANGEL FIRE     FAIR      54  32  44 SW13      30.12S

$$
NMZ402-403-502-505>509-220700-
WESTCENTRAL MOUNTAINS/SOUTHWEST MOUNTAINS

CITY           SKY/WX    TMP DP  RH WIND       PRES   REMARKS
GALLUP         FAIR      62  37  39 S8        29.97F
6HR MIN TEMP:  62; 6HR MAX TEMP:  77;

GRANTS         FAIR      56  34  42 CALM      30.02S
SILVER CITY    FAIR      55  35  47 NW8       30.00S

$$
NMZ407-409-411-412-220700-
SOUTHERN DESERTS

CITY           SKY/WX    TMP DP  RH WIND       PRES   REMARKS
DEMING         FAIR      66  39  37 NW8       29.93S
6HR MIN TEMP:  65; 6HR MAX TEMP:  89;

LAS CRUCES     FAIR      68  39  35 W8        29.95R
HOLLOMAN AFB   FAIR      71  40  32 S8        29.92S
ALAMOGORDO     FAIR      68  39  34 S6        29.92S
T OR C         FAIR      72  37  28 SW6       29.93S
6HR MIN TEMP:  72; 6HR MAX TEMP:  89;


$$
NMZ519>523-220700-
CENTRAL VALLEYS/CENTRAL HIGHLANDS

CITY           SKY/WX    TMP DP  RH WIND       PRES   REMARKS
ALBUQUERQUE    FAIR      69  39  33 SE12      29.94S
6HR MIN TEMP:  69; 6HR MAX TEMP:  85;

CLINES CORNERS FAIR      62  37  39 S15       30.08S
6HR MIN TEMP:  60; 6HR MAX TEMP:  77;

BELEN          FAIR      71  32  24 S12G17    29.93F
6HR MIN TEMP:  68; 6HR MAX TEMP:  86;

SOCORRO        FAIR      64  38  38 SW5       29.92S
6HR MIN TEMP:  64; 6HR MAX TEMP:  88;


$$
NMZ524>526-539-540-220700-
SOUTHCENTRAL MOUNTAINS

CITY           SKY/WX    TMP DP  RH WIND       PRES   REMARKS
RUIDOSO        FAIR      63  41  45 SW8       30.12F

$$
NMZ527>531-220700-
NORTHEAST HIGHLANDS/NORTHEAST PLAINS

CITY           SKY/WX    TMP DP  RH WIND       PRES   REMARKS
LAS VEGAS      FAIR      62  37  39 S15       30.03S
6HR MIN TEMP:  59; 6HR MAX TEMP:  75;

RATON          FAIR      53  33  46 W10       29.95S
6HR MIN TEMP:  53; 6HR MAX TEMP:  79;

CLAYTON        FAIR      62  45  53 SW12      29.90S
6HR MIN TEMP:  57; 6HR MAX TEMP:  84;


$$
NMZ532>537-220700-
EASTCENTRAL PLAINS

CITY           SKY/WX    TMP DP  RH WIND       PRES   REMARKS
SANTA ROSA     FAIR      75  42  29 SW10      29.91S
TUCUMCARI      FAIR      72  41  32 S14       29.86R
6HR MIN TEMP:  71; 6HR MAX TEMP:  90;

CANNON AFB     PTCLDY    76  54  46 S16G24    29.95S
6HR MIN TEMP:  72; 6HR MAX TEMP:  88;

CLOVIS AIRPORT FAIR      72  53  51 S13       29.95S

$$
NMZ028-029-538-220700-
SOUTHEAST PLAINS

CITY           SKY/WX    TMP DP  RH WIND       PRES   REMARKS
ROSWELL        FAIR      76  43  30 S8        29.89S
6HR MIN TEMP:  74; 6HR MAX TEMP:  94;

ARTESIA        FAIR      81  59  47 SE20G26   29.89S
CARLSBAD       FAIR      79  62  56 S10       29.87F
6HR MIN TEMP:  79; 6HR MAX TEMP:  94;

HOBBS          FAIR      77  63  61 S17G24    29.93S


$$




USA.gov is the U.S. government's official web portal to all federal, state and local government web resources and services.